Hourly Data Report for May 13, 2012

All times are specified in Local Standard Time (LST). Add 1 hour to adjust for Daylight Saving Time where and when it is observed.

OTTAWA INTL A
ONTARIO

45°19'00.000" N
75°40'00.000" W
114.90 m
6106001
71628
YOW

Download Data

Hourly Data (May 2012)
Hourly Data Report for May 13, 2012
Temp Definition
°C
Dew Point Temp Definition
°C
Rel Hum Definition
%
Wind Dir Definition
10's deg

Wind Spd Definition
km/h
Visibility Definition
km
Stn Press Definition
kPa
Hmdx Definition


Wind Chill Definition


Weather Definition


TIME
00:00 Legend Double Dagger 14.8 13.2 90 30 11 10.0 100.53     LegendNANA
01:00 Legend Double Dagger 14.9 13.5 91 29 9 10.0 100.55     Rain Showers
02:00 Legend Double Dagger 14.1 13.3 95 26 12 9.7 100.65     Rain
03:00 Legend Double Dagger 13.7 13.1 96 34 6 10.0 100.61     Rain
04:00 Legend Double Dagger 13.3 13.0 98 31 8 10.0 100.68     Rain
05:00 Legend Double Dagger 13.2 12.9 98 29 10 9.7 100.73     Rain,Fog
06:00 Legend Double Dagger 13.3 13.0 98 27 8 10.0 100.79     LegendNANA
07:00 Legend Double Dagger 13.7 12.9 95 31 13 10.0 100.83     Cloudy
08:00 Legend Double Dagger 14.0 11.0 82 33 17 10.0 100.85     LegendNANA
09:00 Legend Double Dagger 14.8 10.5 75 34 14 10.0 100.85     LegendNANA
10:00 Legend Double Dagger 16.9 10.1 64 1 6 10.0 100.88     Mostly Cloudy
11:00 Legend Double Dagger 18.3 6.9 47 33 7 10.0 100.83     LegendNANA
12:00 Legend Double Dagger 20.1 5.1 37 31 24 10.0 100.77     LegendNANA
13:00 Legend Double Dagger 20.3 4.9 36 26 16 10.0 100.74     Mostly Cloudy
14:00 Legend Double Dagger 20.9 5.4 36 27 12 10.0 100.69     LegendNANA
15:00 Legend Double Dagger 21.0 4.3 33   0 10.0 100.63     LegendNANA
16:00 Legend Double Dagger 21.4 6.7 38 15 4 10.0 100.59     Mainly Clear
17:00 Legend Double Dagger 21.5 6.8 38 23 10 10.0 100.57     LegendNANA
18:00 Legend Double Dagger 20.4 6.5 40 20 7 10.0 100.54     LegendNANA
19:00 Legend Double Dagger 18.5 6.1 44 25 6 10.0 100.53     Mainly Clear
20:00 Legend Double Dagger 13.9 5.8 58 17 7 10.0 100.55     LegendNANA
21:00 Legend Double Dagger 13.6 5.8 59 15 13 10.0 100.57     LegendNANA
22:00 Legend Double Dagger 13.4 6.8 64 17 8 10.0 100.57     Mainly Clear
23:00 Legend Double Dagger 13.0 7.5 69 19 9 10.0 100.58     LegendNANA

Notes on Data Quality.

Legend

  • E = Estimated
  • M = Missing
  • NA = Not Available
  • ‡ = Partner data that is not subject to review by the National Climate Archives
Date modified: